Craig, CO

11:39 AM MDT on May 25, 2017 (GMT -0600)
Craig-Moffat

Weather History for KCAG - July, 2013

Change the Weather History Date:

Wednesday, July 24, 2013

  Actual Average Record
Temperature  
Mean Temperature 69 °F 68 °F  
Max Temperature 92 °F 89 °F 96 °F (2003)
Min Temperature 45 °F 47 °F 40 °F (2015)
Degree Days  
Heating Degree Days 0 0  
Month to date heating degree days 0 20  
Since 1 June heating degree days 88 195  
Since 1 July heating degree days 0 20  
Cooling Degree Days 4 3  
Month to date cooling degree days 162 55  
Year to date cooling degree days 206 65  
Since 1 June cooling degree days 206 65  
Growing Degree Days 18 (Base 50)    
Moisture  
Dew Point 38 °F    
Average Humidity 37    
Maximum Humidity 60    
Minimum Humidity 14    
Precipitation  
Precipitation T in 0.04 in 0.15 in (2005)
Month to date precipitation 0.05 0.82  
Year to date precipitation 5.30 8.33  
Sea Level Pressure  
Sea Level Pressure 29.97 in    
Wind  
Wind Speed 6 mph (WSW)    
Max Wind Speed 29 mph    
Max Gust Speed 36 mph    
Visibility 10 miles    
Events Rain    
T = Trace of Precipitation, MM = Missing Value Source: NWS Daily Summary

Daily Weather History Graph

Daily Weather History Graph

Search for Another Location

Airport or City:

Trip Planner

Search our weather history database for the weather conditions in past years. The results will help you decide how hot, cold, wet, or windy it might be!

Date:

Astronomy

Jul. 24, 2013 Rise Set
Actual Time 6:00 AM MDT 8:32 PM MDT
Civil Twilight 5:28 AM MDT 9:03 PM MDT
Nautical Twilight 4:49 AM MDT 9:42 PM MDT
Astronomical Twilight 4:06 AM MDT 10:26 PM MDT
Moon 9:39 PM MDT (7/24) 8:24 AM MDT (7/24)
Length of Visible Light 15h 34m
Length of Day
14h 32m
Waning Gibbous, 94% of the Moon is Illuminated
Jul 24
Waning Gibbous
Jul 29
Last Quarter
Aug 6
New
Aug 14
First Quarter
Aug 20
Full

Hourly Weather History & Observations

Time (MDT) Temp. Dew Point Humidity Pressure Visibility Wind Dir Wind Speed Gust Speed Precip Events Conditions
12:53 AM 52.0 °F 30.9 °F 45% 29.96 in 10.0 mi Calm Calm - N/A   Clear
1:53 AM 48.0 °F 33.1 °F 56% 29.96 in 10.0 mi Calm Calm - N/A   Clear
2:53 AM 50.0 °F 30.0 °F 46% 29.97 in 10.0 mi Variable 3.5 mph - N/A   Clear
3:53 AM 50.0 °F 34.0 °F 54% 29.96 in 10.0 mi Calm Calm - N/A   Clear
4:53 AM 46.9 °F 34.0 °F 61% 29.99 in 10.0 mi Calm Calm - N/A   Clear
5:53 AM 46.9 °F 33.1 °F 59% 30.00 in 10.0 mi Calm Calm - N/A   Clear
6:53 AM 50.0 °F 34.0 °F 54% 30.00 in 10.0 mi Calm Calm - N/A   Clear
7:53 AM 55.0 °F 35.1 °F 47% 30.01 in 10.0 mi WSW 3.5 mph - N/A   Clear
8:53 AM 63.0 °F 36.0 °F 37% 30.04 in 10.0 mi Calm Calm - N/A   Clear
9:53 AM 77.0 °F 37.0 °F 24% 30.00 in 10.0 mi Calm Calm - N/A   Clear
10:53 AM 82.9 °F 34.0 °F 17% 29.99 in 10.0 mi North 3.5 mph - N/A   Clear
11:53 AM 87.1 °F 36.0 °F 16% 29.97 in 10.0 mi WNW 6.9 mph - N/A   Clear
12:53 PM 89.1 °F 36.0 °F 15% 29.96 in 10.0 mi SSW 13.8 mph 24.2 mph N/A   Clear
1:53 PM 90.0 °F 34.0 °F 14% 29.95 in 10.0 mi West 11.5 mph 16.1 mph N/A   Clear
2:53 PM 86.0 °F 37.0 °F 18% 29.95 in 10.0 mi SW 13.8 mph 21.9 mph N/A   Mostly Cloudy
3:53 PM 87.1 °F 39.9 °F 19% 29.95 in 10.0 mi SSW 20.7 mph 32.2 mph N/A   Clear
4:53 PM 84.0 °F 39.9 °F 21% 29.96 in 10.0 mi West 17.3 mph 23.0 mph N/A   Overcast
5:53 PM 82.9 °F 41.0 °F 23% 29.97 in 10.0 mi WSW 13.8 mph 20.7 mph N/A   Mostly Cloudy
6:53 PM 79.0 °F 41.0 °F 26% 29.97 in 10.0 mi WSW 15.0 mph - N/A   Scattered Clouds
7:53 PM 75.9 °F 42.1 °F 30% 29.97 in 10.0 mi West 6.9 mph - N/A   Overcast
8:53 PM 71.1 °F 43.0 °F 36% 29.98 in 10.0 mi Calm Calm - 0.00 in   Partly Cloudy
9:53 PM 72.0 °F 43.0 °F 35% 29.94 in 10.0 mi Calm Calm - N/A   Overcast
10:53 PM 68.0 °F 50.0 °F 52% 29.95 in 10.0 mi WSW 9.2 mph - 0.00 in Rain Light Rain
11:53 PM 68.0 °F 51.1 °F 55% 29.93 in 10.0 mi West 3.5 mph - 0.00 in   Overcast